sat.trackr.live / text

‹ back to catalog

NEXTSAT-2

NORAD 56743 · 2023-072A

PAYLOAD ACTIVE UNKNOWN

§ Identity

Operator
Country
SKOR
Launch date
2023-05-25
Launch site
NSC
Launch vehicle
Mass (kg)
RCS (m²)

External: N2YO · Heavens-Above · Gunter

§ Orbital elements

Epoch: 2026-09-21T22:23:46.917024Z

Period
94.18 min
Inclination
97.5195°
Eccentricity
0.0006539
Mean motion
15.29049258 rev/d
Perigee alt
474.2 km
Apogee alt
483.1 km
Semi-major
6,856.8 km
B*
1.5280e-4
RAAN
102.8783°
Arg perigee
48.8387°
Mean anomaly
311.3415°
Rev number
18,437

§ Raw data

NEXTSAT-21 56743U 23072A   26264.93318191  .00004233  00000+0  15280-3 0  99942 56743  97.5195 102.8783 0006539  48.8387 311.3415 15.29049258184379

JSON: /api/v1/satellites/56743 · /tle

For live sub-satellite position, see the globe view (requires WebGL).

§ Visibility from observer

Set your observer location to see the next 7 days of passes ≥ 10°. The values pass through the URL so the page stays shareable.

No JS? Fill the form by hand. The geolocation button needs JavaScript.